| time (UTC) | temp F | wind direction | speed knots | gust knots | rain 1hr in | rain 24hr in | rain mn in | humidity % | barometer mb |
| 20260507143025 | 71 | 360 | 2.6 | 5.2 | 0.00 | 0.00 | 0.00 | 20 | 1012.8 |
| 20260507141523 | 71 | 360 | 3.5 | 4.3 | 0.00 | 0.00 | 0.00 | 17 | 1012.6 |
| 20260507140024 | 70 | 360 | 0.9 | 1.7 | 0.00 | 0.00 | 0.00 | 19 | 1012.5 |
| 20260507134525 | 68 | 360 | 0.0 | 1.7 | 0.00 | 0.00 | 0.00 | 22 | 1012.4 |
| 20260507133022 | 68 | 360 | 0.9 | 2.6 | 0.00 | 0.00 | 0.00 | 22 | 1012.4 |
| 20260507131521 | 67 | 360 | 0.9 | 2.6 | 0.00 | 0.00 | 0.00 | 21 | 1012.4 |
| 20260507130020 | 66 | 360 | 0.9 | 3.5 | 0.00 | 0.00 | 0.00 | 21 | 1012.3 |
| 20260507124523 | 66 | 360 | 0.0 | 1.7 | 0.00 | 0.00 | 0.00 | 21 | 1012.2 |
| 20260507123018 | 66 | 360 | 0.0 | 2.6 | 0.00 | 0.00 | 0.00 | 22 | 1012.1 |
| 20260507121517 | 66 | 360 | 1.7 | 3.5 | 0.00 | 0.00 | 0.00 | 21 | 1012.1 |
| 20260507120015 | 67 | 360 | 1.7 | 3.5 | 0.00 | 0.00 | 0.00 | 20 | 1012.2 |
| 20260507114514 | 67 | 360 | 2.6 | 4.3 | 0.00 | 0.00 | 0.00 | 20 | 1012.1 |
| 20260507113017 | 67 | 360 | 3.5 | 5.2 | 0.00 | 0.00 | 0.00 | 21 | 1012.3 |
| 20260507111510 | 68 | 360 | 3.5 | 5.2 | 0.00 | 0.00 | 0.00 | 20 | 1012.4 |
| 20260507110006 | 69 | 360 | 3.5 | 5.2 | 0.00 | 0.00 | 0.00 | 18 | 1012.4 |
| 20260507104503 | 69 | 360 | 2.6 | 5.2 | 0.00 | 0.00 | 0.00 | 16 | 1012.4 |
| 20260507103002 | 70 | 360 | 1.7 | 2.6 | 0.00 | 0.00 | 0.00 | 15 | 1012.5 |
| 20260507101502 | 70 | 360 | 0.9 | 2.6 | 0.00 | 0.00 | 0.00 | 15 | 1012.6 |
| 20260507100003 | 70 | 360 | 1.7 | 2.6 | 0.00 | 0.00 | 0.00 | 15 | 1012.8 |
| 20260507094600 | 70 | 360 | 1.7 | 4.3 | 0.00 | 0.00 | 0.00 | 16 | 1012.8 |
| 20260507093103 | 70 | 360 | 3.5 | 7.0 | 0.00 | 0.00 | 0.00 | 15 | 1012.6 |
| 20260507091603 | 70 | 360 | 1.7 | 4.3 | 0.00 | 0.00 | 0.00 | 15 | 1012.7 |
| 20260507090054 | 71 | 360 | 1.7 | 3.5 | 0.00 | 0.00 | 0.00 | 14 | 1012.6 |
| 20260507084557 | 71 | 360 | 1.7 | 4.3 | 0.00 | 0.00 | 0.00 | 13 | 1012.7 |
| 20260507083056 | 71 | 360 | 2.6 | 4.3 | 0.00 | 0.00 | 0.00 | 13 | 1012.8 |
| 20260507081549 | 72 | 360 | 2.6 | 4.3 | 0.00 | 0.00 | 0.00 | 12 | 1012.8 |
| 20260507080112 | 72 | 360 | 1.7 | 3.5 | 0.00 | 0.00 | 0.00 | 12 | 1013.0 |
| 20260507074552 | 72 | 360 | 1.7 | 4.3 | 0.00 | 0.00 | 0.00 | 13 | 1012.9 |
| 20260507073053 | 72 | 360 | 2.6 | 4.3 | 0.00 | 0.00 | 0.00 | 13 | 1012.9 |
| 20260507071604 | 72 | 360 | 1.7 | 4.3 | 0.00 | 0.00 | 0.00 | 13 | 1013.0 |
| 20260507070042 | 72 | 360 | 1.7 | 3.5 | 0.00 | 0.00 | 0.00 | 13 | 1013.0 |
| 20260507064546 | 73 | 360 | 1.7 | 4.3 | 0.00 | 0.00 | 0.00 | 13 | 1013.0 |
| 20260507063041 | 74 | 360 | 1.7 | 3.5 | 0.00 | 0.00 | 0.00 | 12 | 1013.0 |
| 20260507061541 | 74 | 360 | 1.7 | 4.3 | 0.00 | 0.00 | 0.00 | 12 | 1013.0 |
| 20260507060139 | 75 | 360 | 2.6 | 3.5 | 0.00 | 0.00 | 0.00 | 12 | 1013.0 |
| 20260507054546 | 75 | 360 | 1.7 | 3.5 | 0.00 | 0.00 | 0.00 | 11 | 1013.1 |
| 20260507053045 | 75 | 360 | 1.7 | 3.5 | 0.00 | 0.00 | 0.00 | 11 | 1013.0 |
| 20260507051538 | 76 | 360 | 1.7 | 3.5 | 0.00 | 0.00 | 0.00 | 11 | 1013.0 |
| 20260507050037 | 76 | 360 | 2.6 | 4.3 | 0.00 | 0.00 | 0.00 | 11 | 1012.9 |
| 20260507044536 | 76 | 360 | 1.7 | 4.3 | 0.00 | 0.00 | 0.00 | 11 | 1012.9 |
| 20260507043038 | 77 | 360 | 0.9 | 4.3 | 0.00 | 0.00 | 0.00 | 10 | 1012.9 |
| 20260507041536 | 78 | 360 | 1.7 | 4.3 | 0.00 | 0.00 | 0.00 | 11 | 1012.6 |
| 20260507040038 | 78 | 360 | 1.7 | 7.0 | 0.00 | 0.00 | 0.00 | 10 | 1012.6 |
| 20260507034535 | 79 | 360 | 1.7 | 5.2 | 0.00 | 0.00 | 0.00 | 10 | 1012.4 |
| 20260507033039 | 79 | 360 | 0.0 | 3.5 | 0.00 | 0.00 | 0.00 | 9 | 1012.3 |
| 20260507031534 | 80 | 360 | 0.9 | 3.5 | 0.00 | 0.00 | 0.00 | 9 | 1012.1 |
| 20260507030034 | 80 | 360 | 1.7 | 4.3 | 0.00 | 0.00 | 0.00 | 8 | 1011.8 |
| 20260507024535 | 81 | 360 | 1.7 | 4.3 | 0.00 | 0.00 | 0.00 | 8 | 1011.5 |
| 20260507023033 | 81 | 360 | 1.7 | 5.2 | 0.00 | 0.00 | 0.00 | 8 | 1011.4 |
| 20260507021532 | 82 | 360 | 2.6 | 7.8 | 0.00 | 0.00 | 0.00 | 7 | 1011.4 |
| 20260507020034 | 83 | 360 | 2.6 | 7.0 | 0.00 | 0.00 | 0.00 | 7 | 1011.3 |
| 20260507014532 | 83 | 360 | 3.5 | 7.8 | 0.00 | 0.00 | 0.00 | 6 | 1011.3 |
| 20260507013037 | 84 | 360 | 1.7 | 7.0 | 0.00 | 0.00 | 0.00 | 6 | 1011.3 |
| 20260507011538 | 84 | 184 | 1.7 | 7.8 | 0.00 | 0.00 | 0.00 | 6 | 1011.3 |
| 20260507010031 | 85 | 216 | 3.5 | 7.8 | 0.00 | 0.00 | 0.00 | 6 | 1011.3 |
| 20260507004530 | 85 | 236 | 4.3 | 10.4 | 0.00 | 0.00 | 0.00 | 7 | 1011.3 |
| 20260507003028 | 85 | 224 | 2.6 | 6.1 | 0.00 | 0.00 | 0.00 | 6 | 1011.4 |
| 20260507001530 | 85 | 246 | 3.5 | 7.0 | 0.00 | 0.00 | 0.00 | 7 | 1011.3 |
| 20260507000026 | 85 | 360 | 1.7 | 7.8 | 0.00 | 0.00 | 0.00 | 7 | 1011.4 |
| 20260506234531 | 85 | 360 | 1.7 | 7.0 | 0.00 | 0.00 | 0.00 | 7 | 1011.4 |
| 20260506233026 | 85 | 240 | 2.6 | 8.7 | 0.00 | 0.00 | 0.00 | 7 | 1011.6 |
| 20260506231524 | 85 | 170 | 3.5 | 8.7 | 0.00 | 0.00 | 0.00 | 7 | 1011.8 |
| 20260506230020 | 85 | 360 | 1.7 | 8.7 | 0.00 | 0.00 | 0.00 | 7 | 1011.9 |
| 20260506224526 | 84 | 360 | 2.6 | 9.6 | 0.00 | 0.00 | 0.00 | 8 | 1012.1 |
| 20260506223017 | 84 | 225 | 1.7 | 7.0 | 0.00 | 0.00 | 0.00 | 7 | 1012.2 |
| 20260506221515 | 85 | 205 | 2.6 | 7.0 | 0.00 | 0.00 | 0.00 | 7 | 1012.4 |
| 20260506220013 | 84 | 360 | 0.9 | 5.2 | 0.00 | 0.00 | 0.00 | 8 | 1012.7 |
| 20260506214512 | 83 | 360 | 1.7 | 7.8 | 0.00 | 0.00 | 0.00 | 8 | 1012.9 |
| 20260506213019 | 83 | 360 | 2.6 | 7.0 | 0.00 | 0.00 | 0.00 | 7 | 1013.3 |
| 20260506211515 | 83 | 360 | 2.6 | 8.7 | 0.00 | 0.00 | 0.00 | 7 | 1013.5 |
| 20260506210012 | 83 | 360 | 1.7 | 7.0 | 0.00 | 0.00 | 0.00 | 7 | 1013.7 |
| 20260506204509 | 82 | 360 | 4.3 | 9.6 | 0.00 | 0.00 | 0.00 | 7 | 1013.9 |
| 20260506203008 | 83 | 219 | 4.3 | 9.6 | 0.00 | 0.00 | 0.00 | 7 | 1014.0 |
| 20260506201507 | 82 | 360 | 1.7 | 5.2 | 0.00 | 0.00 | 0.00 | 8 | 1014.1 |
| 20260506200010 | 81 | 360 | 8.7 | 12.2 | 0.00 | 0.00 | 0.00 | 8 | 1014.3 |
| 20260506194505 | 81 | 360 | 1.7 | 5.2 | 0.00 | 0.00 | 0.00 | 8 | 1014.3 |
| 20260506193004 | 81 | 360 | 2.6 | 7.8 | 0.00 | 0.00 | 0.00 | 7 | 1014.5 |
| 20260506191503 | 80 | 360 | 4.3 | 7.8 | 0.00 | 0.00 | 0.00 | 9 | 1014.7 |
| 20260506190003 | 80 | 157 | 3.5 | 8.7 | 0.00 | 0.00 | 0.00 | 10 | 1014.8 |
| 20260506184602 | 80 | 360 | 1.7 | 7.8 | 0.00 | 0.00 | 0.00 | 11 | 1015.0 |
| 20260506183111 | 79 | 360 | 2.6 | 8.7 | 0.00 | 0.00 | 0.00 | 12 | 1015.1 |
| 20260506181601 | 79 | 360 | 2.6 | 9.6 | 0.00 | 0.00 | 0.00 | 12 | 1015.3 |
| 20260506180057 | 78 | 360 | 0.9 | 7.0 | 0.00 | 0.00 | 0.00 | 13 | 1015.5 |
| 20260506174607 | 78 | 360 | 2.6 | 7.8 | 0.00 | 0.00 | 0.00 | 14 | 1015.4 |
| 20260506173153 | 78 | 360 | 0.9 | 3.5 | 0.00 | 0.00 | 0.00 | 14 | 1015.5 |
| 20260506171549 | 76 | 360 | 1.7 | 8.7 | 0.00 | 0.00 | 0.00 | 14 | 1015.5 |
| 20260506170048 | 75 | 360 | 3.5 | 8.7 | 0.00 | 0.00 | 0.00 | 16 | 1015.4 |
| 20260506164549 | 74 | 360 | 4.3 | 10.4 | 0.00 | 0.00 | 0.00 | 18 | 1015.5 |
| 20260506163057 | 74 | 360 | 1.7 | 7.8 | 0.00 | 0.00 | 0.00 | 19 | 1015.4 |
| 20260506161539 | 72 | 360 | 3.5 | 8.7 | 0.00 | 0.00 | 0.00 | 20 | 1015.5 |
| 20260506160037 | 71 | 258 | 2.6 | 8.7 | 0.00 | 0.00 | 0.00 | 20 | 1015.3 |
| 20260506154537 | 70 | 263 | 2.6 | 7.0 | 0.00 | 0.00 | 0.00 | 21 | 1015.3 |
| 20260506153032 | 69 | 231 | 4.3 | 7.0 | 0.00 | 0.00 | 0.00 | 22 | 1015.3 |
| 20260506151536 | 68 | 360 | 2.6 | 7.0 | 0.00 | 0.00 | 0.00 | 23 | 1015.4 |
| 20260506150024 | 67 | 360 | 1.7 | 5.2 | 0.00 | 0.00 | 0.00 | 25 | 1015.5 |
| 20260506144522 | 66 | 360 | 3.5 | 7.0 | 0.00 | 0.00 | 0.00 | 25 | 1015.4 |